Погода в Пяткове

Россия / Тюменская область     56°09′05″N   66°46′09″E
темп.,
°C
ветер,
м/с
пор.,
м/с
влажн.,
%
обл.,
%
осадки,
мм/ч
давл.,
гПа
погр.,
м
28 ноября, вс
вс2823:00−3зюз6148859 0.0 1025498
02:00−5юз51193100 0.0 1027282
05:00−6юз51193100 0.0 1028235
08:00−7юз41094100 0.0 1029208
11:00−5юз4118729 0.0 1030269
14:00−5юз4108260 0.0 1029238
17:00−8ююз411825 0.0 1029191
20:00−7ююз51476100 0.0 1028272
29 ноября, пн
пн2923:00−6ююз51578100 0.0 1027346
02:00−5ююз61477100 0.0 1026368
05:00−6ююз5147593 0.0 1025328
08:00−7ююз51276100 0.0 1024270
11:00−6ююз5137860 0.0 1024288
14:00−4юз512765 0.0 1023305
17:00−6ююз410846 0.0 1023169
20:00−4юз41083100 0.0 1023228
30 ноября, вт
вт3023:00−3юз4986100 0.0 1023198
02:00−2юз3889100 0.0 1023191
05:00−2юз4989100 0.0 1023197
08:00−3ююз389097 0.0 1022136
11:00−3ююз4886100 0.0 1022171
14:00−1ююз4108251 0.0 1021263
17:00−5ю51379100 0.0 1020235
20:00−6ю5147584 0.0 1019268
1 декабря, ср
ср123:00−6ю61671100 0.0 1016298
02:00−5ю71870100 0.0 1014373
05:00−4ююз71969100 0.0 1012418
08:00−3ююз71973100 0.0 1011435
11:00−2ююз61679100 0.0 1011423
14:00−2ююз61689100 0.6 1011489
17:00−1ю61689100 0.9 1010424
20:000ю61673100 0.0 1009402
2 декабря, чт
чт223:00−1ю61671100 0.0 1008357
02:00−1ю61671100 0.0 1006355
05:00−1ю7197298 0.0 1003447
08:000ю8187919 0.0 1001505
11:00+1ююз71684100 0.0 1001563
14:00+1ююз61388100 0.0 1000468
17:00−1юз5129391 0.0 1001330
20:000зюз51296100 0.0 1002457